Location: Round Knob
(37.2473°N, 88.7376°W)
Time: 12:32:53
(UTC+00:00)

COSMO-SKYMED 1 - Pass Details

Date: 29 October 2020
Orbit: 621 x 623 km, 97.9° (Epoch: 04 December)

Event Time Altitude Azimuth Distance (km) Brightness Sun altitude
Rises 23:32:37 0° 19° (NNE) 2,909 5.7 -7.2°
Reaches altitude 10° 23:34:54 10° 26° (NNE) 1,998 4.8 -7.6°
Maximum altitude 23:39:03 44° 99° (E) 864 2.9 -8.4°
Drops below altitude 10° 23:43:11 10° 172° (S) 1,982 5.2 -9.2°
Sets 23:45:27 0° 178° (S) 2,884 6.1 -9.7°
